Flag for U.S.A. Weather past 2 weeks in Virginia Beach, Virginia, U.S.A.

Now
52 °F

Clear.


Feels Like: 46 °F
Forecast: 50 / 66 °F
Wind: 18 mph from Northwest

Location: Virginia Beach - Oceana

Current Time: Apr 28, 2015 at 3:59:49 AM

Latest Report: Apr 28, 2015 at 2:56 AM


Visibility: 10 mi

Pressure: 29.85 "Hg

Humidity: 61%

Dew point: 39 °F

Location of Virginia BeachLocation

Historic Weather in Virginia Beach — Graph

°F

Virginia Beach temperature yesterday

Maximum temperature yesterday: 64 °F (at 1:56 PM)
Minimum temperature yesterday: 42 °F (at 3:56 AM)
Average temperature yesterday: 55 °F

Past Weeks' High & Low Weather Summary

 TemperatureHumidityPressure
High81 °F (Apr 20, 2:56 PM)93% (Apr 19, 3:56 AM)30.40 "Hg (Apr 19, 3:56 AM)
Low42 °F (Apr 27, 3:56 AM)22% (Apr 22, 3:56 PM)29.62 "Hg (Apr 26, 2:56 AM)
Average61 °F65%29.96 "Hg
* Reported Apr 13 2:56 AM — Apr 28 2:56 AM, Virginia Beach, Weather by CustomWeather, © 2015

Note: Actual official high and low records may vary slightly from our data, if they occured in-between our weather recording intervals... More about our weather records

Advertising

Virginia Beach weather history for previous 24 hours

 ConditionsComfort  
Time TempWeatherWind HumidityBarometerVisibility
2:56 AM
Tue, Apr 28
52 °FClear.18 mph61%29.85 "Hg10 mi
1:56 AM54 °FClear.21 mph55%29.85 "Hg10 mi
12:56 AM54 °FClear.15 mph55%29.87 "Hg10 mi
11:56 PM
Mon, Apr 27
52 °FPassing clouds.7 mph57%29.87 "Hg10 mi
10:56 PM54 °FPassing clouds.8 mph55%29.85 "Hg10 mi
9:56 PM54 °FPassing clouds.7 mph62%29.85 "Hg10 mi
8:56 PM56 °FMostly cloudy.3 mph58%29.83 "Hg10 mi
7:56 PM58 °FMore clouds than sun.6 mph47%29.81 "Hg10 mi
6:56 PM60 °FOvercast.6 mph46%29.78 "Hg10 mi
5:56 PM62 °FPartly sunny.7 mph41%29.79 "Hg10 mi
4:56 PM63 °FPartly sunny.10 mph38%29.77 "Hg10 mi
3:56 PM64 °FScattered clouds.13 mph41%29.74 "Hg10 mi
2:56 PM64 °FPassing clouds.8 mph43%29.75 "Hg10 mi
1:56 PM64 °FPassing clouds.12 mph37%29.77 "Hg10 mi
12:56 PM63 °FPassing clouds.13 mph50%29.78 "Hg10 mi
11:56 AM62 °FPassing clouds.16 mph56%29.79 "Hg10 mi
10:56 AM63 °FPassing clouds.13 mph60%29.77 "Hg10 mi
9:56 AM63 °FPassing clouds.10 mph54%29.75 "Hg10 mi
8:56 AM58 °FPassing clouds.7 mph65%29.75 "Hg10 mi
7:56 AM51 °FSunny.8 mph80%29.75 "Hg10 mi
6:56 AM44 °FClear.6 mph82%29.74 "Hg10 mi
5:56 AM43 °FClear.No wind86%29.73 "Hg10 mi
4:56 AM45 °FClear.6 mph82%29.72 "Hg10 mi
3:56 AM42 °FClear.3 mph82%29.72 "Hg10 mi
Weather by CustomWeather, © 2015

See weather overviewHow to use our weather pages